Location: Boitzum
(52.1496°N, 9.6943°E)
Time: 14:30:27
(UTC+00:00)

Cosmos 1709 Rocket - Visible Passes

Search period start: 19 April 2026 00:00
Search period end: 29 April 2026 00:00
Orbit: 946 x 1001 km, 82.9° (Epoch: 19 April)

Date Brightness Start Highest point End Pass type
(mag) Time Alt. Az. Time Alt. Az. Time Alt. Az.
19 Apr 7.1 01:36:38 10° NNE 01:38:47 12° NE 01:40:56 10° ENE visible
19 Apr 5.0 03:19:49 10° N 03:25:47 51° ENE 03:31:42 10° SSE visible
20 Apr 6.7 02:00:15 10° NNE 02:04:23 18° ENE 02:08:31 10° E visible
20 Apr 7.1 19:09:21 10° W 19:12:59 16° NW 19:16:36 10° NNW visible
21 Apr 6.1 02:24:35 10° N 02:29:48 28° ENE 02:35:00 10° ESE visible
22 Apr 7.3 01:07:19 10° NE 01:07:51 10° NE 01:08:23 10° NE visible
22 Apr 5.2 02:49:11 10° N 02:55:02 44° ENE 03:00:50 10° SE visible
23 Apr 6.7 01:29:51 10° NNE 01:33:30 16° NE 01:37:09 10° E visible
23 Apr 4.3 03:13:58 10° N 03:20:05 71° ENE 03:26:11 10° SSE visible
24 Apr 6.2 01:54:02 10° N 01:58:58 25° ENE 02:03:54 10° ESE visible
25 Apr 5.5 02:18:34 10° N 02:24:15 38° ENE 02:29:56 10° SE visible
26 Apr 6.7 00:59:31 10° NNE 01:02:36 14° NE 01:05:41 10° E visible
26 Apr 4.6 02:43:18 10° N 02:49:22 61° ENE 02:55:25 10° SSE visible
27 Apr 6.4 01:23:31 10° N 01:28:08 22° ENE 01:32:44 10° ESE visible
27 Apr 4.0 03:08:11 10° NNW 03:14:19 84° W 03:20:27 10° S visible
28 Apr 5.7 01:47:58 10° N 01:53:28 33° ENE 01:58:57 10° SE visible
